• In Hungary
  • List of Countries
  • For 7 days
  • Water Temperature
  • Satellite Maps
  • Weather Map
  • News
  • Weather Widgets
  • user-avatar
    Login

    Hourly Weather Osiki

    Today, 26 September, Wednesday

    Time Temperature Precipitation Wind Pressure Humidity
    00:00 +3°C° 0 mm 3 mps 764 mmHg 74%
    01:00 +3°C° 0 mm 3 mps 764 mmHg 74%
    02:00 +3°C° 0 mm 3 mps 763 mmHg 72%
    03:00 +3°C° 0 mm 3 mps 763 mmHg 70%
    04:00 +3°C° 0 mm 4 mps 763 mmHg 68%
    05:00 +4°C° 0 mm 4 mps 763 mmHg 69%
    06:00 +5°C° 0 mm 5 mps 763 mmHg 69%
    07:00 +5°C° 0 mm 5 mps 763 mmHg 70%
    08:00 +7°C° 0 mm 6 mps 762 mmHg 65%
    09:00 +8°C° 0 mm 6 mps 762 mmHg 60%
    10:00 +10°C° 0 mm 7 mps 762 mmHg 55%
    11:00 +10°C° 0 mm 7 mps 761 mmHg 55%
    12:00 +10°C° 0 mm 7 mps 760 mmHg 55%
    13:00 +11°C° 0 mm 8 mps 760 mmHg 55%
    14:00 +10°C° 0.2 mm 8 mps 759 mmHg 61%
    15:00 +7°C° 0.2 mm 8 mps 758 mmHg 66%
    16:00 +6°C° 0.2 mm 8 mps 758 mmHg 72%
    17:00 +6°C° 1.1 mm 8 mps 757 mmHg 76%
    18:00 +6°C° 1.1 mm 9 mps 757 mmHg 80%
    19:00 +5°C° 1.1 mm 9 mps 756 mmHg 84%
    20:00 +6°C° 0.3 mm 8 mps 755 mmHg 81%
    21:00 +7°C° 0.3 mm 8 mps 755 mmHg 79%
    22:00 +7°C° 0.3 mm 8 mps 754 mmHg 77%
    23:00 +9°C° 0.1 mm 8 mps 753 mmHg 78%

    Tomorrow, 27 September, Thursday

    Time Temperature Precipitation Wind Pressure Humidity
    00:00 +10°C° 0.1 mm 8 mps 753 mmHg 80%
    01:00 +10°C° 0.1 mm 8 mps 753 mmHg 81%
    02:00 +11°C° 0.3 mm 7 mps 752 mmHg 84%
    03:00 +12°C° 0.3 mm 7 mps 752 mmHg 87%
    04:00 +12°C° 0.3 mm 7 mps 752 mmHg 90%
    05:00 +13°C° 0.3 mm 6 mps 752 mmHg 90%
    06:00 +13°C° 0.3 mm 6 mps 753 mmHg 90%
    07:00 +13°C° 0.3 mm 5 mps 753 mmHg 90%
    08:00 +14°C° 0 mm 6 mps 753 mmHg 84%
    09:00 +15°C° 0 mm 7 mps 754 mmHg 78%
    10:00 +15°C° 0 mm 7 mps 754 mmHg 71%
    11:00 +16°C° 0 mm 7 mps 754 mmHg 69%
    12:00 +16°C° 0 mm 7 mps 754 mmHg 66%
    13:00 +16°C° 0 mm 7 mps 754 mmHg 64%
    14:00 +16°C° 0 mm 6 mps 754 mmHg 67%
    15:00 +16°C° 0 mm 5 mps 754 mmHg 71%
    16:00 +15°C° 0 mm 5 mps 754 mmHg 75%
    17:00 +15°C° 0 mm 5 mps 753 mmHg 78%
    18:00 +15°C° 0 mm 5 mps 753 mmHg 82%
    19:00 +14°C° 0 mm 5 mps 753 mmHg 85%
    20:00 +14°C° 0 mm 5 mps 752 mmHg 86%
    21:00 +14°C° 0 mm 6 mps 752 mmHg 87%
    22:00 +14°C° 0 mm 6 mps 751 mmHg 87%
    23:00 +14°C° 0 mm 6 mps 751 mmHg 87%

    Day after tomorrow, 28 September, Friday

    Time Temperature Precipitation Wind Pressure Humidity
    00:00 +14°C° 0 mm 6 mps 750 mmHg 87%
    01:00 +15°C° 0 mm 7 mps 749 mmHg 87%
    02:00 +15°C° 0.3 mm 7 mps 748 mmHg 87%
    03:00 +15°C° 0.3 mm 7 mps 748 mmHg 86%
    04:00 +15°C° 0.3 mm 8 mps 747 mmHg 86%
    05:00 +14°C° 0.7 mm 7 mps 747 mmHg 85%
    06:00 +12°C° 0.7 mm 7 mps 748 mmHg 85%
    07:00 +13°C° 0.7 mm 6 mps 748 mmHg 84%
    08:00 +13°C° 0.1 mm 6 mps 748 mmHg 77%
    09:00 +12°C° 0.1 mm 7 mps 749 mmHg 70%
    10:00 +12°C° 0.1 mm 7 mps 750 mmHg 63%
    11:00 +14°C° 0 mm 7 mps 750 mmHg 60%
    12:00 +14°C° 0 mm 6 mps 750 mmHg 57%
    13:00 +15°C° 0 mm 6 mps 751 mmHg 54%
    14:00 +14°C° 0.1 mm 6 mps 751 mmHg 58%
    15:00 +13°C° 0.1 mm 5 mps 751 mmHg 61%
    16:00 +12°C° 0.1 mm 5 mps 751 mmHg 64%
    17:00 +11°C° 0 mm 4 mps 752 mmHg 70%
    18:00 +10°C° 0 mm 3 mps 752 mmHg 76%
    19:00 +8°C° 0 mm 3 mps 753 mmHg 81%
    20:00 +8°C° 0 mm 2 mps 753 mmHg 82%
    21:00 +8°C° 0 mm 2 mps 753 mmHg 83%
    22:00 +7°C° 0 mm 2 mps 754 mmHg 84%
    23:00 +7°C° 0 mm 2 mps 754 mmHg 84%

    29 September, Saturday

    Time Temperature Precipitation Wind Pressure Humidity
    00:00 +6°C° 0 mm 2 mps 754 mmHg 84%
    01:00 +6°C° 0 mm 2 mps 755 mmHg 84%
    02:00 +5°C° 0 mm 2 mps 755 mmHg 84%
    03:00 +5°C° 0 mm 2 mps 755 mmHg 83%
    04:00 +5°C° 0 mm 2 mps 755 mmHg 83%
    05:00 +6°C° 0 mm 2 mps 756 mmHg 80%
    06:00 +6°C° 0 mm 2 mps 756 mmHg 77%
    07:00 +7°C° 0 mm 3 mps 757 mmHg 74%
    08:00 +8°C° 0 mm 3 mps 757 mmHg 67%
    09:00 +10°C° 0 mm 4 mps 758 mmHg 59%
    10:00 +11°C° 0 mm 4 mps 758 mmHg 52%
    11:00 +12°C° 0 mm 4 mps 758 mmHg 49%
    12:00 +12°C° 0 mm 4 mps 759 mmHg 47%
    13:00 +13°C° 0 mm 4 mps 759 mmHg 45%
    14:00 +12°C° 0 mm 4 mps 759 mmHg 48%
    15:00 +12°C° 0 mm 3 mps 759 mmHg 51%
    16:00 +11°C° 0 mm 3 mps 759 mmHg 53%
    17:00 +10°C° 0 mm 2 mps 759 mmHg 58%
    18:00 +8°C° 0 mm 2 mps 760 mmHg 63%
    19:00 +7°C° 0 mm 1 mps 760 mmHg 67%
    20:00 +7°C° 0 mm 1 mps 760 mmHg 68%
    21:00 +7°C° 0 mm 1 mps 760 mmHg 69%
    22:00 +6°C° 0 mm 1 mps 761 mmHg 69%
    23:00 +6°C° 0 mm 1 mps 761 mmHg 70%

    30 September, Sunday

    Time Temperature Precipitation Wind Pressure Humidity
    00:00 +5°C° 0 mm 2 mps 761 mmHg 70%
    01:00 +5°C° 0 mm 2 mps 761 mmHg 71%
    02:00 +5°C° 0 mm 2 mps 760 mmHg 71%
    03:00 +4°C° 0 mm 2 mps 760 mmHg 72%
    04:00 +3°C° 0 mm 3 mps 760 mmHg 73%
    05:00 +4°C° 0 mm 3 mps 760 mmHg 71%
    06:00 +5°C° 0 mm 3 mps 760 mmHg 69%
    07:00 +5°C° 0 mm 4 mps 760 mmHg 67%
    08:00 +7°C° 0 mm 4 mps 760 mmHg 61%
    09:00 +10°C° 0 mm 4 mps 760 mmHg 55%
    10:00 +12°C° 0 mm 5 mps 760 mmHg 50%
    11:00 +13°C° 0 mm 5 mps 759 mmHg 48%
    12:00 +13°C° 0 mm 5 mps 759 mmHg 46%
    13:00 +14°C° 0 mm 5 mps 758 mmHg 44%
    14:00 +14°C° 0 mm 4 mps 758 mmHg 48%
    15:00 +13°C° 0 mm 3 mps 757 mmHg 51%
    16:00 +13°C° 0 mm 3 mps 757 mmHg 54%
    17:00 +11°C° 0 mm 3 mps 756 mmHg 57%
    18:00 +10°C° 0 mm 3 mps 756 mmHg 60%
    19:00 +8°C° 0 mm 3 mps 756 mmHg 63%
    20:00 +8°C° 0 mm 3 mps 756 mmHg 63%
    21:00 +7°C° 0 mm 3 mps 756 mmHg 63%
    22:00 +7°C° 0 mm 3 mps 756 mmHg 63%
    23:00 +5°C° 0 mm 3 mps 755 mmHg 63%

    1 October, Monday

    Time Temperature Precipitation Wind Pressure Humidity
    00:00 +5°C° 0 mm 3 mps 755 mmHg 64%
    01:00 +4°C° 0 mm 3 mps 754 mmHg 65%
    02:00 +4°C° 0 mm 3 mps 754 mmHg 66%
    03:00 +4°C° 0 mm 3 mps 753 mmHg 68%
    04:00 +4°C° 0 mm 3 mps 753 mmHg 70%
    05:00 +4°C° 0 mm 3 mps 753 mmHg 69%
    06:00 +4°C° 0 mm 3 mps 752 mmHg 69%
    07:00 +5°C° 0 mm 3 mps 752 mmHg 68%
    08:00 +7°C° 0 mm 4 mps 752 mmHg 64%
    09:00 +10°C° 0 mm 4 mps 751 mmHg 60%
    10:00 +12°C° 0 mm 4 mps 751 mmHg 56%
    11:00 +12°C° 0 mm 4 mps 750 mmHg 55%
    12:00 +13°C° 0 mm 4 mps 750 mmHg 53%
    13:00 +14°C° 0 mm 4 mps 749 mmHg 52%
    14:00 +14°C° 0 mm 3 mps 749 mmHg 55%
    15:00 +14°C° 0 mm 3 mps 748 mmHg 58%
    16:00 +14°C° 0 mm 2 mps 748 mmHg 60%
    17:00 +13°C° 0 mm 2 mps 748 mmHg 64%
    18:00 +11°C° 0 mm 3 mps 748 mmHg 67%
    19:00 +10°C° 0 mm 3 mps 747 mmHg 70%
    20:00 +11°C° 0 mm 3 mps 747 mmHg 69%
    21:00 +11°C° 0 mm 3 mps 747 mmHg 68%
    22:00 +11°C° 0 mm 3 mps 747 mmHg 68%
    23:00 +11°C° 0 mm 3 mps 747 mmHg 69%
    Show more